Overview Statistics Trail Chart Weather Telemetry Raw packets
 

This is the latest recevied weather packets stored in our database for station/object KW4UJ. If no packets are shown the sender has not sent any weather packets the latest 10 day(s).

<< 40 41 42 43 44 45 46 >>
Time Temp. Humidity Pressure Rain* Wind** Luminosity Snow
1788358700 28.89° C 74% 1018.3 hPa 0 mm - 89 W/m² -
1788358396 28.89° C 73% 1018.2 hPa 0 mm - 88 W/m² -
1788358095 28.89° C 72% 1018.4 hPa 0 mm - 88 W/m² -
1788357791 28.89° C 73% 1018.2 hPa 0 mm - 85 W/m² -
1788357489 28.33° C 74% 1018.4 hPa 0 mm - 89 W/m² -
1788357186 28.33° C 74% 1018.3 hPa 0 mm - 84 W/m² -
1788356884 28.33° C 74% 1018.2 hPa 0 mm - 78 W/m² -
1788356580 27.78° C 75% 1018.2 hPa 0 mm - 74 W/m² -
1788356276 27.78° C 75% 1018.3 hPa 0 mm - 69 W/m² -
1788355988 27.78° C 76% 1018.4 hPa 0 mm - 71 W/m² -
1788355670 27.78° C 76% 1018.4 hPa 0 mm - 74 W/m² -
1788355366 28.33° C 76% 1018.3 hPa 0 mm - 67 W/m² -
1788355061 27.78° C 77% 1018.1 hPa 0 mm - 203 W/m² -
1788354757 28.33° C 76% 1018.2 hPa 0 mm - 202 W/m² -
1788354457 28.33° C 74% 1018.2 hPa 0 mm - 191 W/m² -
1788354153 28.33° C 76% 1018 hPa 0 mm - 183 W/m² -
1788353848 27.22° C 77% 1018 hPa 0 mm - 93 W/m² -
1788353544 26.67° C 79% 1018.1 hPa 0 mm - 84 W/m² -
1788353241 26.67° C 80% 1018.2 hPa 0 mm - 115 W/m² -
1788352936 26.67° C 80% 1018.2 hPa 0 mm - 87 W/m² -
1788352631 26.11° C 81% 1018.2 hPa 0 mm - 74 W/m² -
1788352327 26.11° C 81% 1018.1 hPa 0 mm - 64 W/m² -
1788352025 26.11° C 82% 1017.8 hPa 0 mm - 68 W/m² -
1788351722 25.56° C 83% 1017.8 hPa 0 mm - 64 W/m² -
1788351416 25.56° C 85% 1018 hPa 0 mm - 63 W/m² -

* Rain latest hour (hover to see other rain measurements)
** Current wind speed in m/s (hover to see current wind gust speed)